Location: *
(48.7358°N, 0.3111°E)
Time: 19:55:56
(UTC+00:00)

Cosmos 2369 Rocket - Pass Details

Date: 22 October 2019
Orbit: 830 x 851 km, 71.0° (Epoch: 11 November)

Event Time Altitude Azimuth Distance (km) Brightness Sun altitude
Rises 04:21:21 0° 335° (NNW) 3,389 5.2 -21.7°
Reaches altitude 10° 04:23:59 10° 343° (NNW) 2,450 4.5 -21.2°
Maximum altitude 04:29:10 37° 51° (NE) 1,277 3.6 -20.4°
Drops below altitude 10° 04:34:19 10° 118° (ESE) 2,436 5.4 -19.6°
Sets 04:36:56 0° 127° (SE) 3,366 6.1 -19.1°
